Sevilla, Spain

5:13 AM CET on November 22, 2017 (GMT +0100)
San Pablo

Weather History for LEZL - December, 2013

Change the Weather History Date:

Sunday, December 1, 2013

  Actual Average Record
Temperature  
Mean Temperature 48 °F -  
Max Temperature 60 °F 60 °F 69 °F (1996)
Min Temperature 37 °F 44 °F 33 °F (1998)
Degree Days  
Heating Degree Days 16    
Moisture  
Dew Point 30 °F    
Average Humidity 52    
Maximum Humidity 81    
Minimum Humidity 29    
Precipitation  
Precipitation 0.00 in - - ()
Sea Level Pressure  
Sea Level Pressure 30.03 in    
Wind  
Wind Speed 6 mph ()    
Max Wind Speed 21 mph    
Max Gust Speed 22 mph    
Averages and records for this station are not official NWS values.
T = Trace of Precipitation, MM = Missing Value Source: Averaged Metar Reports

Daily Weather History Graph

Daily Weather History Graph

Search for Another Location

Airport or City:

Trip Planner

Search our weather history database for the weather conditions in past years. The results will help you decide how hot, cold, wet, or windy it might be!

Date:

Astronomy

Dec. 01, 2013 Rise Set
Actual Time 8:19 AM CET 6:05 PM CET
Civil Twilight 7:50 AM CET 6:34 PM CET
Nautical Twilight 7:18 AM CET 7:06 PM CET
Astronomical Twilight 6:46 AM CET 7:38 PM CET
Moon 6:23 AM CET (12/1) 5:03 PM CET (12/1)
Length of Visible Light 10h 44m
Length of Day
9h 46m
Waning Crescent, 3% of the Moon is Illuminated
Dec 1
Waning Crescent
Dec 3
New
Dec 9
First Quarter
Dec 17
Full
Dec 25
Last Quarter

Hourly Weather History & Observations

Time (CET) Temp. Windchill Dew Point Humidity Pressure Visibility Wind Dir Wind Speed Gust Speed Precip Events Conditions
12:00 AM 42.8 °F - 33.8 °F 70% 29.98 in - Variable 2.3 mph - N/A   Clear
12:30 AM 44.6 °F 43.1 °F 35.6 °F 71% 29.98 in - ENE 3.5 mph - N/A   Clear
1:00 AM 44.6 °F - 35.6 °F 71% 29.98 in - Calm Calm - N/A   Clear
4:30 AM 46.4 °F 42.9 °F 35.6 °F 66% 30.01 in - ENE 6.9 mph - N/A   Clear
5:00 AM 41.0 °F 37.1 °F 33.8 °F 76% 30.01 in - NNE 5.8 mph - N/A   Clear
5:30 AM 41.0 °F 37.1 °F 33.8 °F 76% 29.98 in - NE 5.8 mph - N/A   Clear
6:00 AM 39.2 °F 37.0 °F 33.8 °F 81% 30.01 in - NE 3.5 mph - N/A   Clear
6:30 AM 42.8 °F - 33.8 °F 70% 30.01 in - Variable 1.2 mph - N/A   Clear
7:00 AM 41.0 °F - 32.0 °F 70% 30.01 in - NNE 2.3 mph - N/A   Clear
7:30 AM 37.4 °F 32.1 °F 32.0 °F 81% 30.01 in - NE 6.9 mph - N/A   Clear
8:00 AM 37.4 °F 32.8 °F 30.2 °F 75% 30.04 in - NE 5.8 mph - N/A   Clear
8:30 AM 37.4 °F 31.4 °F 30.2 °F 75% 30.04 in - NE 8.1 mph - N/A   Clear
9:00 AM 41.0 °F 37.1 °F 30.2 °F 65% 30.04 in - ENE 5.8 mph - N/A   Clear
9:30 AM 42.8 °F 37.0 °F 30.2 °F 61% 30.04 in - NE 10.4 mph - N/A   Clear
10:00 AM 46.4 °F 41.1 °F 28.4 °F 50% 30.06 in - NE 11.5 mph - N/A   Clear
10:30 AM 48.2 °F - 28.4 °F 46% 30.06 in - ENE 11.5 mph - N/A   Clear
11:00 AM 50.0 °F - 26.6 °F 40% 30.06 in - ENE 15.0 mph - N/A   Clear
11:30 AM 51.8 °F - 24.8 °F 35% 30.06 in - ENE 17.3 mph - N/A   Clear
12:00 PM 51.8 °F - 24.8 °F 35% 30.04 in - NE 19.6 mph - N/A   Clear
12:30 PM 53.6 °F - 24.8 °F 33% 30.04 in - NE 18.4 mph - N/A   Clear
1:00 PM 55.4 °F - 24.8 °F 31% 30.04 in - ENE 20.7 mph - N/A   Clear
1:30 PM 57.2 °F - 26.6 °F 31% 30.04 in - ENE 17.3 mph - N/A   Clear
2:00 PM 57.2 °F - 26.6 °F 31% 30.04 in - ENE 18.4 mph - N/A   Clear
2:30 PM 59.0 °F - 28.4 °F 31% 30.01 in - ENE 17.3 mph - N/A   Clear
3:00 PM 59.0 °F - 30.2 °F 34% 30.01 in - NE 15.0 mph - N/A   Clear
3:30 PM 59.0 °F - 30.2 °F 34% 30.01 in - NE 15.0 mph - N/A   Clear
4:00 PM 60.8 °F - 28.4 °F 29% 30.01 in - NE 10.4 mph - N/A   Clear
4:30 PM 60.8 °F - 30.2 °F 31% 30.01 in - NE 6.9 mph - N/A   Clear
5:00 PM 60.8 °F - 28.4 °F 29% 30.01 in - NNE 10.4 mph 21.9 mph N/A   Clear
5:30 PM 59.0 °F - 28.4 °F 31% 30.01 in - NNE 10.4 mph - N/A   Clear
6:00 PM 57.2 °F - 28.4 °F 33% 30.01 in - NNE 6.9 mph - N/A   Clear
6:30 PM 55.4 °F - 28.4 °F 36% 30.01 in - NNE 3.5 mph - N/A   Clear
7:00 PM 50.0 °F - 30.2 °F 47% 30.04 in - Variable 1.2 mph - N/A   Clear
7:30 PM 50.0 °F - 30.2 °F 47% 30.04 in - Variable 1.2 mph - N/A   Clear
8:00 PM 46.4 °F - 30.2 °F 53% 30.04 in - Variable 1.2 mph - N/A   Clear
8:30 PM 48.2 °F - 32.0 °F 54% 30.06 in - Variable 1.2 mph - N/A   Clear
9:00 PM 48.2 °F - 32.0 °F 54% 30.06 in - Calm Calm - N/A   Clear
9:30 PM 46.4 °F 45.2 °F 30.2 °F 53% 30.06 in - NNE 3.5 mph - N/A   Clear
10:00 PM 46.4 °F 44.3 °F 32.0 °F 57% 30.06 in - NE 4.6 mph - N/A   Clear
10:30 PM 46.4 °F 45.2 °F 32.0 °F 57% 30.06 in - NE 3.5 mph - N/A   Clear
11:00 PM 42.8 °F 38.6 °F 32.0 °F 66% 30.06 in - NNE 6.9 mph - N/A   Clear
11:30 PM 42.8 °F - 32.0 °F 66% 30.06 in - Variable 2.3 mph - N/A   Clear